Santiago, Dominican Republic

5:08 PM AST on March 29, 2017 (GMT -0400)
Cibao International

Weather History for MDST - December, 2012

Change the Weather History Date:

Sunday, December 30, 2012

  Actual Average Record
Temperature  
Mean Temperature 77 °F -  
Max Temperature 86 °F 84 °F 91 °F (1997)
Min Temperature 68 °F 65 °F 57 °F (2010)
Cooling Degree Days 12    
Growing Degree Days 27 (Base 50)    
Moisture  
Dew Point 68 °F    
Average Humidity 80    
Maximum Humidity 100    
Minimum Humidity 32    
Precipitation  
Precipitation 0.00 in 0.07 in - ()
Sea Level Pressure  
Sea Level Pressure 30.04 in    
Wind  
Wind Speed 4 mph ()    
Max Wind Speed 16 mph    
Max Gust Speed -    
Visibility 6.1 miles    
Events      
Averages and records for this station are not official NWS values.
T = Trace of Precipitation, MM = Missing Value Source: Averaged Metar Reports

Daily Weather History Graph

Daily Weather History Graph

Search for Another Location

Airport or City:

Trip Planner

Search our weather history database for the weather conditions in past years. The results will help you decide how hot, cold, wet, or windy it might be!

Date:

Astronomy

Dec. 30, 2012 Rise Set
Actual Time 7:16 AM AST 6:14 PM AST
Civil Twilight 6:52 AM AST 6:38 PM AST
Nautical Twilight 6:25 AM AST 7:06 PM AST
Astronomical Twilight 5:58 AM AST 7:33 PM AST
Moon 8:22 PM AST (12/30) 8:40 AM AST (12/30)
Length of Visible Light 11h 46m
Length of Day
10h 58m
Waning Gibbous, 95% of the Moon is Illuminated
Dec 30
Waning Gibbous
Jan 4
Last Quarter
Jan 11
New
Jan 18
First Quarter
Jan 27
Full

Hourly Weather History & Observations

Time (AST) Temp. Heat Index Dew Point Humidity Pressure Visibility Wind Dir Wind Speed Gust Speed Precip Events Conditions
12:00 AM 71.6 °F - 71.6 °F 100% 30.04 in 6.2 mi East 5.8 mph - N/A   Partly Cloudy
1:00 AM 71.6 °F - 71.6 °F 100% 30.04 in 6.2 mi East 6.9 mph - N/A   Scattered Clouds
2:00 AM 69.8 °F - 69.8 °F 100% 30.04 in 6.2 mi ENE 8.1 mph - N/A   Partly Cloudy
3:00 AM 69.8 °F - 69.8 °F 100% 30.01 in 6.2 mi Calm Calm - N/A   Partly Cloudy
4:00 AM 69.8 °F - 69.8 °F 100% 30.01 in 6.2 mi Calm Calm - N/A   Partly Cloudy
5:00 AM 70 °F - 69 °F 95% 30.01 in 5 mi Calm Calm - -   Haze
5:00 AM 69.8 °F - 69.8 °F 100% 30.01 in 6.2 mi Calm Calm - N/A   Scattered Clouds
6:00 AM 69.8 °F - 69.8 °F 100% 30.01 in 6.2 mi Calm Calm - N/A   Scattered Clouds
7:00 AM 68.0 °F - 68.0 °F 100% 30.04 in 6.2 mi Calm Calm - N/A   Scattered Clouds
8:00 AM 68.0 °F - 68.0 °F 100% 30.06 in 1.2 mi Calm Calm - N/A   Scattered Clouds
9:00 AM 69.8 °F - 69.8 °F 100% 30.09 in 6.2 mi Calm Calm - N/A   Partly Cloudy
10:00 AM 75.2 °F - 73.4 °F 94% 30.09 in 6.2 mi Calm Calm - N/A   Partly Cloudy
11:00 AM 77 °F - 71 °F 76% 30.11 in 6 mi NW 6.7 mph - -   Haze
11:00 AM 77.0 °F - 71.6 °F 83% 30.09 in 6.2 mi NW 6.9 mph - N/A   Scattered Clouds
12:00 PM 82.4 °F 85.4 °F 68.0 °F 62% 30.06 in 6.2 mi Variable 3.5 mph - N/A   Scattered Clouds
1:00 PM 82.4 °F - 50.0 °F 32% 30.06 in 6.2 mi Calm Calm - N/A   Scattered Clouds
2:00 PM 84 °F - 68 °F 49% 30.04 in 7 mi NE 6.7 mph - -   Haze
2:00 PM 84.2 °F 87.3 °F 68.0 °F 58% 30.04 in 6.2 mi NE 6.9 mph - N/A   Scattered Clouds
3:00 PM 84.2 °F 86.6 °F 66.2 °F 55% 30.01 in 6.2 mi ESE 16.1 mph - N/A   Scattered Clouds
4:00 PM 84.2 °F 87.3 °F 68.0 °F 58% 29.98 in 6.2 mi ESE 4.6 mph - N/A   Scattered Clouds
5:00 PM 85 °F - 68 °F 47% 30.00 in 9 mi ENE 8.9 mph - -   Haze
5:00 PM 84.2 °F 87.3 °F 68.0 °F 58% 29.98 in 6.2 mi ENE 9.2 mph - N/A   Scattered Clouds
6:00 PM 80.6 °F 82.7 °F 66.2 °F 61% 30.01 in 6.2 mi ENE 8.1 mph - N/A   Partly Cloudy
7:00 PM 77.0 °F - 66.2 °F 69% 30.01 in 6.2 mi Calm Calm - N/A   Partly Cloudy
8:00 PM 75 °F - 68 °F 73% 30.05 in 7 mi SSE 4.5 mph - -   Haze
8:00 PM 75.2 °F - 68.0 °F 78% 30.04 in 6.2 mi SSE 4.6 mph - N/A   Partly Cloudy
9:00 PM 73.4 °F - 69.8 °F 88% 30.09 in 6.2 mi Variable 3.5 mph - N/A   Partly Cloudy
10:00 PM 71.6 °F - 69.8 °F 94% 30.09 in 6.2 mi Variable 3.5 mph - N/A   Partly Cloudy
11:00 PM 68.0 °F - 68.0 °F 100% 30.12 in 6.2 mi Calm Calm - N/A   Partly Cloudy